This is the latest recevied weather packets stored in our database for station/object N5PRN. If no packets are shown the sender has not sent any weather packets the latest 1 day(s).
| Time | Temp. | Humidity | Pressure | Rain* | Wind** | Luminosity | Snow |
|---|---|---|---|---|---|---|---|
| 1778075893 | 23.33° C | 98% | 1012.1 hPa | 0 mm | - | 63 W/m² | - |
| 1778075589 | 23.89° C | 98% | 1011.9 hPa | 0 mm | - | 59 W/m² | - |
| 1778074073 | 23.33° C | 99% | 1011.7 hPa | 0 mm | - | 90 W/m² | - |
| 1778072861 | 22.78° C | 99% | 1011.6 hPa | 0 mm | - | 62 W/m² | - |
| 1778072256 | 22.78° C | 99% | 1011.6 hPa | 0 mm | - | 65 W/m² | - |
| 1778071349 | 22.78° C | 99% | 1011.3 hPa | 0 mm | - | 28 W/m² | - |
| 1778070745 | 22.78° C | 99% | 1011.2 hPa | 0 mm | - | 17 W/m² | - |
| 1778069533 | 22.78° C | 99% | 1011 hPa | 0 mm | - | 10 W/m² | - |
| 1778068324 | 22.78° C | 99% | 1010.7 hPa | 0 mm | - | 6 W/m² | - |
| 1778068021 | 22.78° C | 99% | 1010.8 hPa | 0 mm | - | 3 W/m² | - |
| 1778066508 | 22.22° C | 99% | 1010.2 hPa | 0 mm | - | 0 W/m² | - |
| 1778065903 | 22.22° C | 99% | 1010.4 hPa | 0 mm | - | 0 W/m² | - |
| 1778064389 | 22.22° C | 99% | 1010 hPa | 0 mm | - | 0 W/m² | - |
| 1778064086 | 22.22° C | 99% | 1009.8 hPa | 0 mm | - | 0 W/m² | - |
| 1778062269 | 22.22° C | 99% | 1009.8 hPa | 0 mm | - | 0 W/m² | - |
| 1778061665 | 22.22° C | 99% | 1009.6 hPa | 0 mm | - | 0 W/m² | - |
| 1778061364 | 22.22° C | 99% | 1009.6 hPa | 0 mm | - | 0 W/m² | - |
| 1778061060 | 22.22° C | 99% | 1009.7 hPa | 0 mm | - | 0 W/m² | - |
| 1778060455 | 22.22° C | 99% | 1009.8 hPa | 0 mm | - | 0 W/m² | - |
| 1778059850 | 22.22° C | 99% | 1009.7 hPa | 0 mm | - | 0 W/m² | - |
| 1778058640 | 22.78° C | 99% | 1009.8 hPa | 0 mm | - | 0 W/m² | - |
| 1778058338 | 22.78° C | 98% | 1009.8 hPa | 0 mm | - | 0 W/m² | - |
| 1778058034 | 22.78° C | 98% | 1009.9 hPa | 0 mm | - | 0 W/m² | - |
| 1778057427 | 22.78° C | 98% | 1010.1 hPa | 0 mm | - | 0 W/m² | - |
| 1778056820 | 22.78° C | 98% | 1010.1 hPa | 0 mm | - | 0 W/m² | - |
* Rain latest hour (hover to see other rain measurements)
** Current wind speed in m/s (hover to see current wind gust speed)